Powrót do katalogu

SL-16 DEB

AktywnyVLEO
NORAD 22571·DEBRIS·🇷🇺 Russia

Wystrzelony Dec 25, 1992 z Baikonur Cosmodrome

Loading…

Następne Przeloty (najbliższe 24 godziny)

TLE

ŚwieżeSource: Space-Track

Epoka: Sep 13, 2026, 23:13 UTC

1 22571U 92093HT  26256.96795673  .00104415  00000-0  52938-2 0  9997
2 22571  71.3231  95.4435 0022937  48.0618 312.2510 15.16180105718756

Śledź SL-16 DEB w czasie rzeczywistym z AllMySat

Download on the App Store